International Virtual Aviation Organisation

Eastern Europe and Northern Asia MCD

 

Карточка аэропорта UAKK

Внимание!
Информация на этой странице в стадии наполнения.
Если вы не увидели какой-то информации, или заметили неточность - пожалуйста сообщите нам!
Спасибо!
Команда RU-STAFF
Название аэропортаКараганда
Название аэропорта (англ.)Karaganda
Превышение1768 ft. (538.9 m.)
Координаты49°40.302', 73°20.118'
Высота перехода10000
Эшелон переходаby ATC
Коды ответчика0630-0637, 7220-7227
Зона ОрВДНур-Султан РПИ (UACN)
Данные METARUAKK 131930Z 12002MPS CAVOK M03/M06 Q1035 R05/0///70 NOSIG RMK QFE728/0971
Проноз погоды (TAF)UAKK 131701Z 1318/1418 07005MPS 9999 SCT030 BKN100 TX15/1410Z TNM02/1324Z TEMPO 1403/1413 07009MPS
NOTAMshow/hide NOTAM
AWOS   TABLE

Информация о ВПП

ВПП Длина ВПП (м.) Покрытие Курс ВПП Частота ILS
053601Железобетон50109.9
233601Железобетон230111.7

Диспетчерские позиции




Спутниковое изображение